Location: A�t Lahcen
(32.8243°N, 5.4246°W)
Time: 01:45:06
(UTC+00:00)

CZ-4B R/B - Pass Details

Date: 27 January 2021
Orbit: 387 x 458 km, 97.6° (Epoch: 26 February)

Event Time Altitude Azimuth Distance (km) Brightness Sun altitude
Rises 04:52:05 0° 136° (SE) 2,454 5.8 -31.0°
Reaches altitude 10° 04:54:30 10° 118° (ESE) 1,593 4.9 -30.5°
Enters shadow 04:56:41 19° 79° (ENE) 1,164 4.1 -30.1°
